Regional Weather Roundup
Issued by NWS

Home | Current Version | Previous Version | Graphics & Text | Print | Product List | Glossary On
Versions: 1 2 3 4 5 6 7 8 9 10 11 12 13 14 15 16 17 18 19 20 21 22 23 24 25 26 27 28 29 30 31 32 33 34 35 36 37 38 39 40 41 42 43 44 45 46 47 48 49 50
000
ASUS43 KMKX 241710
RWRWI

WISCONSIN REGIONAL WEATHER ROUNDUP
NATIONAL WEATHER SERVICE MILWAUKEE/SULLIVAN WI
1200 PM CDT THU JUL 24 2014

NOTE: "FAIR" INDICATES FEW OR NO CLOUDS BELOW 12,000 FEET WITH NO
SIGNIFICANT WEATHER AND/OR OBSTRUCTIONS TO VISIBILITY.

WIZ001-002-006>008-014>016-023>028-241800-
NORTHWEST WISCONSIN

CITY           SKY/WX    TMP DP  RH WIND       PRES   REMARKS
SUPERIOR ARPT  MOSUNNY   72  60  66 NE6       30.09F
ASHLAND        MOSUNNY   75  55  49 VRB3      30.11F
HAYWARD        PTSUNNY   73  52  47 SE7       30.12F
SIREN          MOSUNNY   75  52  44 SW8       30.11F
RICE LAKE      MOSUNNY   75  50  40 S6        30.14F
LADYSMITH      SUNNY     73  52  48 CALM      30.16F
EAU CLAIRE     PTSUNNY   76  49  38 VRB5      30.13F
MENOMONIE      MOSUNNY   77  52  41 S6        30.13F
NEW RICHMOND   PTSUNNY   75  53  46 SW9       30.12F
OSCEOLA        PTSUNNY   78  56  45 S9        30.13F
$$

WIZ003>005-009-010-017-018-241800-
NORTH CENTRAL WISCONSIN

CITY           SKY/WX    TMP DP  RH WIND       PRES   REMARKS
WOODRUFF       MOSUNNY   77  54  44 SW8       30.15F
RHINELANDER    PTSUNNY   70  49  47 VRB3      30.17F
EAGLE RIVER    PTSUNNY   67  46  46 W6        30.15F
LAND O LAKES   MOSUNNY   70  46  42 W5        30.15F
PHILLIPS       PTSUNNY   73  52  47 NW6       30.14F
TOMAHAWK       PTSUNNY   70  49  47 CALM      30.16F
MEDFORD        PTSUNNY   69  50  50 CALM      30.16F
MERRILL        SUNNY     71  50  47 SW6       30.16F
$$

WIZ029-030-035-036-043>047-241800-
CENTRAL WISCONSIN

CITY           SKY/WX    TMP DP  RH WIND       PRES   REMARKS
WAUSAU         CLOUDY    71  48  43 CALM      30.15F
MOSINEE        MOSUNNY   70  52  52 SW7       30.19S
MARSHFIELD     MOSUNNY   74  52  46 SW3       30.16F
STEVENS POINT  SUNNY     69  48  46 CALM      30.18S
WAUPACA        SUNNY     75  48  38 SW5       30.18S
WAUTOMA        MOSUNNY   74  52  46 VRB3      30.18F
WISC RAPIDS    MOSUNNY   75  52  44 SW5       30.18F
CAMP DOUGLAS   MOSUNNY   73  57  56 VRB5      30.17F
$$

WIZ011>013-019>022-031-037>040-048>050-241800-
NORTHEAST WISCONSIN

CITY           SKY/WX    TMP DP  RH WIND       PRES   REMARKS
ANTIGO         CLOUDY    69  51  52 NW5       30.18S
STURGEON BAY   SUNNY     70  45  40 NW5       30.17S
GREEN BAY      SUNNY     73  48  41 SW6       30.16F
MANITOWOC      SUNNY     67  47  48 SE8       30.18S
APPLETON       MOSUNNY   70  46  43 VRB3      30.18F
CLINTONVILLE   MOSUNNY   73  50  43 SW8       30.16F
OSHKOSH        SUNNY     71  49  45 SE5       30.17F
$$

WIZ032>034-041-042-053>061-241800-
SOUTHWEST WISCONSIN

CITY           SKY/WX    TMP DP  RH WIND       PRES   REMARKS
LA CROSSE      SUNNY     78  53  41 VRB3      30.13
SPARTA         MOSUNNY   76  48  37 CALM      30.16F
VIROQUA        FAIR      73  54  50 CALM      30.17F
BOSCOBEL       SUNNY     76  54  46 VRB3      30.17F
PRAIRIE DU CHI SUNNY     74  55  50 SW5       30.16S
PLATTEVILLE    FAIR      72  55  53 CALM      30.19F
$$

WIZ056-057-062-063-064-067-068-241800-
SOUTH CENTRAL WISCONSIN

CITY           SKY/WX    TMP DP  RH WIND       PRES   REMARKS
BARABOO/DELLS  SUNNY     74  49  41 CALM      30.17F
LONE ROCK      SUNNY     78  56  46 NW3       30.17F
WATERTOWN      SUNNY     71  52  49 S3        30.17S
MADISON        PTSUNNY   73  51  46 S3        30.18F
MIDDLETON      PTSUNNY   75  48  38 E6        30.19S
MONROE         MOSUNNY   72  52  49 CALM      30.19S
JANESVILLE     SUNNY     73  46  38 SE6       30.18S
$$

WIZ051-052-058>065-066-070>072-241800-
SOUTHEAST WISCONSIN

CITY           SKY/WX    TMP DP  RH WIND       PRES   REMARKS
MILWAUKEE      MOSUNNY   69  51  52 NE7       30.19S
WAUKESHA       SUNNY     70  46  43 NE7       30.19F
MILWAUKEE/TIMM NOT AVBL
RACINE         SUNNY     69  52  54 VRB6      30.20F
BURLINGTON     SUNNY     69  49  48 NE3       30.18S
KENOSHA        SUNNY     69  51  52 E10       30.19F
FOND DU LAC    SUNNY     73  49  42 VRB5      30.17F
SHEBOYGAN      SUNNY     69  44  40 VRB3      30.18F
WEST BEND      SUNNY     70  46  43 CALM      30.17F
JUNEAU         SUNNY     71  45  40 SE5       30.19S
$$

LSZ147-162-241800-
LAKE SUPERIOR

STATION/POSITION TIME  TEMP    WIND        PRES    WAVE
                       AIR SEA DIR/SP/G            HT/PER
                 (UTC) (F)     (DEG/KT/KT) (MB)    (FT/S)
$$

LMZ867-665-643>646-241800-
LAKE MICHIGAN

STATION/POSITION TIME  TEMP    WIND        PRES    WAVE
                       AIR SEA DIR/SP/G            HT/PER
                 (UTC) (F)     (DEG/KT/KT) (MB)    (FT/S)
$$

TC  - TEMPERATURE IN CELSIUS
VSB - VISIBILITY IN STATUTE MILES
WCI - WIND CHILL INDEX
HX  - HEAT INDEX



USA.gov is the U.S. government's official web portal to all federal, state and local government web resources and services.